TimeCST,TemperatureF,Dew PointF,Humidity,Sea Level PressureIn,VisibilityMPH,Wind Direction,Wind SpeedMPH,Gust SpeedMPH,PrecipitationIn,Events,Conditions,WindDirDegrees,DateUTC
12:00 AM,70,60,62,29.75,12,ENE,6.9,,,,Clear,70,2013-02-25 06:00:00
12:00 AM,69.8,60.8,73,29.95,-9999.0,ENE,6.9,-,N/A,,Clear,70,2013-02-25 06:00:00
1:00 AM,69.8,60.8,73,29.94,-9999.0,ENE,8.1,-,N/A,,Clear,70,2013-02-25 07:00:00
2:00 AM,69.8,60.8,73,29.93,-9999.0,ENE,8.1,-,N/A,,Clear,70,2013-02-25 08:00:00
3:00 AM,68,60,67,29.78,12,ENE,5.8,,,,Clear,70,2013-02-25 09:00:00
3:00 AM,68.0,59.0,73,29.92,-9999.0,ENE,5.8,-,N/A,,Clear,70,2013-02-25 09:00:00
4:00 AM,68.0,59.0,73,29.91,-9999.0,ENE,6.9,-,N/A,,Clear,60,2013-02-25 10:00:00
5:00 AM,68.0,59.0,73,29.91,-9999.0,ENE,9.2,-,N/A,,Clear,70,2013-02-25 11:00:00
6:00 AM,66,58,69,29.78,12,NNE,9.2,,,,Clear,30,2013-02-25 12:00:00
6:00 AM,66.2,59.0,78,29.93,-9999.0,NNE,9.2,-,N/A,,Clear,30,2013-02-25 12:00:00
7:00 AM,73.4,60.8,65,29.95,-9999.0,NE,6.9,-,N/A,,Clear,50,2013-02-25 13:00:00
8:00 AM,75.2,60.8,61,29.95,-9999.0,ESE,11.5,-,N/A,,Clear,110,2013-02-25 14:00:00
9:00 AM,78,62,48,29.77,12,ESE,13.8,,,,Clear,110,2013-02-25 15:00:00
9:00 AM,78.8,62.6,57,29.94,-9999.0,ESE,13.8,-,N/A,,Clear,110,2013-02-25 15:00:00
10:00 AM,82.4,60.8,48,29.95,6.2,East,11.5,-,N/A,,Scattered Clouds,100,2013-02-25 16:00:00
11:00 AM,84.2,60.8,45,29.92,6.2,ESE,13.8,-,N/A,,Scattered Clouds,120,2013-02-25 17:00:00
12:00 PM,84,60,34,29.76,12,SSE,9.2,,,,Partly Cloudy,150,2013-02-25 18:00:00
12:00 PM,84.2,60.8,45,29.91,6.2,SSE,9.2,-,N/A,,Scattered Clouds,150,2013-02-25 18:00:00
1:00 PM,84.2,64.4,51,29.89,6.2,West,13.8,-,N/A,,Scattered Clouds,270,2013-02-25 19:00:00
2:00 PM,82.4,64.4,54,29.87,6.2,West,12.7,-,N/A,,Scattered Clouds,260,2013-02-25 20:00:00
3:00 PM,74,66,70,29.74,9,WSW,8.1,,,,Overcast,240,2013-02-25 21:00:00
3:00 PM,73.4,66.2,78,29.87,6.2,WSW,8.1,-,N/A,Rain,Light Rain Showers,240,2013-02-25 21:00:00
3:29 PM,71.6,68.0,88,29.87,3.1,SSW,5.8,-,N/A,Rain-Thunderstorm,Thunderstorms and Rain,210,2013-02-25 21:29:00
3:30 PM,71.6,68.0,88,29.87,3.1,SSW,5.8,-,N/A,Rain-Thunderstorm,Thunderstorms and Rain,210,2013-02-25 21:30:00
3:34 PM,71.6,68.0,88,29.87,3.1,SSW,5.8,-,N/A,Rain-Thunderstorm,Thunderstorms and Rain,210,2013-02-25 21:34:00
4:00 PM,69.8,66.2,88,29.89,3.1,SW,5.8,-,N/A,Rain,Rain,220,2013-02-25 22:00:00
5:00 PM,69.8,68.0,94,29.90,3.1,South,1.2,-,N/A,Rain,Light Rain,180,2013-02-25 23:00:00
6:00 PM,70,66,85,29.79,3,South,3.5,,,Rain,Light Rain,170,2013-02-26 00:00:00
6:00 PM,69.8,66.2,88,29.92,3.1,South,3.5,-,N/A,Rain,Light Rain,170,2013-02-26 00:00:00
7:00 PM,69.8,66.2,88,29.92,6.2,East,4.6,-,N/A,,Mostly Cloudy,100,2013-02-26 01:00:00
8:00 PM,69.8,64.4,83,29.92,-9999.0,East,6.9,-,N/A,,Clear,80,2013-02-26 02:00:00
9:00 PM,69,65,81,29.79,12,East,2.3,,,,Scattered Clouds,100,2013-02-26 03:00:00
9:00 PM,69.8,64.4,83,29.95,-9999.0,East,2.3,-,N/A,,Clear,100,2013-02-26 03:00:00
10:00 PM,68.0,64.4,88,29.95,-9999.0,Calm,Calm,-,N/A,,Clear,0,2013-02-26 04:00:00
11:00 PM,68.0,64.4,88,29.96,-9999.0,ESE,2.3,-,N/A,,Clear,120,2013-02-26 05:00:00